sat.trackr.live / text

‹ back to catalog

NILESAT 301

NORAD 52817 · 2022-061A

PAYLOAD ACTIVE UNKNOWN

§ Identity

Operator
Country
EGYP
Launch date
2022-06-08
Launch site
AFETR
Launch vehicle
Mass (kg)
RCS (m²)

Purposes: comms

External: N2YO · Heavens-Above · Gunter

§ Orbital elements

Epoch: 2026-05-25T03:42:32.459904Z

Period
1,436.10 min
Inclination
0.0638°
Eccentricity
0.0005773
Mean motion
1.00271745 rev/d
Perigee alt
35,762.3 km
Apogee alt
35,810.9 km
Semi-major
42,164.7 km
B*
0.0000e+0
RAAN
36.8161°
Arg perigee
359.9770°
Mean anomaly
254.5675°
Rev number
1,450

§ Raw data

NILESAT 3011 52817U 22061A   26145.15454236 -.00000060  00000+0  00000+0 0  99972 52817   0.0638  36.8161 0005773 359.9770 254.5675  1.00271745 14500

JSON: /api/v1/satellites/52817 · /tle

For live sub-satellite position, see the globe view (requires WebGL).

§ Visibility from observer

Set your observer location to see the next 7 days of passes ≥ 10°. The values pass through the URL so the page stays shareable.

No JS? Fill the form by hand. The geolocation button needs JavaScript.